Regional Weather Roundup
Issued by NWS

Home | Current Version | Previous Version | Text Only | Print | Product List | Glossary Off
Versions: 1 2 3 4 5 6 7 8 9 10 11 12 13 14 15 16 17 18 19 20 21 22 23 24 25 26 27 28 29 30 31 32 33 34 35 36 37 38 39 40 41 42 43 44 45 46 47 48 49 50

004
ASUS43 KIND 251809
RWRIN

WEATHER ROUNDUP FOR INDIANA
NATIONAL WEATHER SERVICE INDIANAPOLIS IN
200 PM EDT SUN JUN 25 2017

NOTE: "FAIR" INDICATES FEW OR NO CLOUDS BELOW 12,000 FEET WITH NO
SIGNIFICANT WEATHER AND/OR OBSTRUCTIONS TO VISIBILITY.

* - STATION DOES NOT REPORT WEATHER SUCH AS PRECIPITATION OR FOG.

+ - STATION NOT QUALITY CONTROLLED BY THE NATIONAL WEATHER SERVICE.
    USE DATA WITH CAUTION...ESPECIALLY DEWPOINT AND RELATIVE
    HUMIDITY OBSERVATIONS.

INZ001>003-010>013-019-020-251900-
NORTHWEST INDIANA

CITY           SKY/WX    TMP DP  RH WIND       PRES   REMARKS
GARY /AIRPORT/ PTSUNNY   72  39  30 W10G32    30.12S
KNOX *+        PTSUNNY   68  32  26 W10G23    30.11F
LA PORTE +     MOSUNNY   70  46  41 W12G22    30.11F
6HR MIN TEMP:  58; 6HR MAX TEMP:  70;

MONTICELLO +   MOSUNNY   71  42  36 W15G28    30.13F
6HR MIN TEMP:  58; 6HR MAX TEMP:  71;

VALPARAISO     MOSUNNY   73  44  35 W18       30.11F
6HR MIN TEMP:  60; 6HR MAX TEMP:  73;


$$

LMZ046-743>745-251900-
SOUTHERN LAKE MICHIGAN

STATION/POSITION TIME  TEMP    WIND        PRES    WAVE
                       AIR SEA DIR/SP/G            HT
                 (UTC) (F)     (DEG/KT/KT) (MB)    (FT)
BURNS HARBOR     1740   66     290/ 14/ 16 1020.0S
MICHIGAN CITY    1740   65     260/ 14/ 16   N/A
5NW MICH CITY    1800   65 66  280/ 12/ 16   N/A     3

$$

INZ004-005-014>016-021>024-251900-
NORTH CENTRAL INDIANA

CITY           SKY/WX    TMP DP  RH WIND       PRES   REMARKS
ELKHART        MOSUNNY  N/A N/A N/A W16       30.07F
GOSHEN         MOSUNNY   70  44  39 W13G22    30.09F
6HR MIN TEMP:  58; 6HR MAX TEMP:  70;

LOGANSPORT +   MOSUNNY   70  45  40 W14G35    30.14S
PERU/GRISSOM   MOSUNNY   68  44  41 NW21G26   30.11F
6HR MIN TEMP:  59; 6HR MAX TEMP:  70;

ROCHESTER +    MOSUNNY   72  43  35 W16G23    30.12S
SOUTH BEND     PTSUNNY   69  46  43 NW14      30.10F
6HR MIN TEMP:  58; 6HR MAX TEMP:  70;

WARSAW +       MOSUNNY   68  45  42 NW10G20   30.11S

$$

INZ006>009-017-018-025>027-251900-
NORTHEAST INDIANA

CITY           SKY/WX    TMP DP  RH WIND       PRES   REMARKS
AUBURN +       MOSUNNY   70  43  37 W10G23    30.10S
FORT WAYNE     PTSUNNY   69  46  43 W15       30.11F
6HR MIN TEMP:  61; 6HR MAX TEMP:  70;

HUNTINGTON +   PTSUNNY   67  43  40 W12G17    30.12S
6HR MIN TEMP:  59; 6HR MAX TEMP:  69;

KENDALLVILLE + MOSUNNY   70  44  38 W15G21    30.10S

$$

INZ028-029-035-036-043>045-051>053-251900-
WEST CENTRAL INDIANA

CITY           SKY/WX    TMP DP  RH WIND       PRES   REMARKS
CRAWFORDSVL +  MOSUNNY   69  48  46 W14G21    30.16S
6HR MIN TEMP:  56; 6HR MAX TEMP:  70;

GREENCASTLE +  MOSUNNY   73  46  38 W9        30.17F
LAFAYETTE      PTSUNNY   68  48  48 NW13G22   30.14S
6HR MIN TEMP:  57; 6HR MAX TEMP:  71;

TERRE HAUTE    MOSUNNY   75  49  39 W13       30.16F
6HR MIN TEMP:  60; 6HR MAX TEMP:  75;


$$

INZ030>032-037>040-046>048-054>057-064-065-251900-
CENTRAL INDIANA

CITY           SKY/WX    TMP DP  RH WIND       PRES   REMARKS
CP ATTERBURY + SUNNY     73  48  40 W15G21    30.16S
COLUMBUS       MOSUNNY   73  43  33 W13       30.15F
FRANKFORT +    MOSUNNY   73  50  44 NW16G23   30.17S
6HR MIN TEMP:  60; 6HR MAX TEMP:  73;

GREENWOOD *+   SUNNY     73  47  39 W16G23    30.16F
6HR MIN TEMP:  61; 6HR MAX TEMP:  73;

INDIANAPOLIS   MOSUNNY   74  47  38 NW20G29   30.15F
6HR MIN TEMP:  60; 6HR MAX TEMP:  74;

-EAGLE CREEK   MOSUNNY   72  48  42 W12G18    30.15S
6HR MIN TEMP:  62; 6HR MAX TEMP:  72;

KOKOMO +       MOSUNNY   70  47  43 W20       30.15R
6HR MIN TEMP:  59; 6HR MAX TEMP:  70;

MARION +       PTSUNNY   70  46  43 W12G23    30.15S
MT COMFORT *+  SUNNY     73  48  40 W22       30.16S
SHELBYVILLE    MOSUNNY   74  48  39 W15G23    30.14F
6HR MIN TEMP:  61; 6HR MAX TEMP:  75;

ZIONSVILLE +   PTSUNNY   69  50  50 W10G18    30.16F
6HR MIN TEMP:  59; 6HR MAX TEMP:  69;


$$

INZ033-034-041-042-049-050-058-059-251900-
EAST CENTRAL INDIANA

CITY           SKY/WX    TMP DP  RH WIND       PRES   REMARKS
MUNCIE         MOSUNNY   71  47  42 W13       30.14S
6HR MIN TEMP:  64; 6HR MAX TEMP:  71;

RICHMOND +     SUNNY     70  46  43 W20       30.15S

$$

INZ060-061-067>069-081>083-085>088-251900-
SOUTHWEST INDIANA

CITY           SKY/WX    TMP DP  RH WIND       PRES   REMARKS
EVANSVILLE     MOSUNNY   82  51  34 W12G25    30.19F
6HR MIN TEMP:  61; 6HR MAX TEMP:  82;

HUNTINGBURG *+ MOSUNNY   79  54  41 W16G23    30.18F
6HR MIN TEMP:  59; 6HR MAX TEMP:  80;

WASHINGTON +   SUNNY     77  48  36 W12G24    30.17S
6HR MIN TEMP:  62; 6HR MAX TEMP:  77;


$$

INZ062-063-066-070>080-084-089>092-251900-
SOUTH CENTRAL AND SOUTHEAST INDIANA

CITY           SKY/WX    TMP DP  RH WIND       PRES   REMARKS
BEDFORD +      MOSUNNY   75  48  38 W12G20    30.16S
BLOOMINGTON    SUNNY     76  46  34 W14G22    30.16F
6HR MIN TEMP:  60; 6HR MAX TEMP:  76;

MADISON *+     SUNNY     79  43  27 W12G26    30.18F
NORTH VERNON + MOSUNNY   73  52  46 W16G24    30.16F
SEYMOUR +      MOSUNNY   79  54  41 W17G25    30.15F

$$





USA.gov is the U.S. government's official web portal to all federal, state and local government web resources and services.